Weather History for Truth Or Consequences, NM

Change the Weather History Date:

Friday, July 12, 2013

  Actual Average Record
Temperature  
Mean Temperature 80 °F -  
Max Temperature 94 °F - 102 °F (1998)
Min Temperature 66 °F - 59 °F (1997)
Degree Days  
Heating Degree Days 0    
Month to date heating degree days 0  
Since 1 June heating degree days 0  
Since 1 July heating degree days 0  
Cooling Degree Days 15    
Month to date cooling degree days 181  
Year to date cooling degree days 961  
Since 1 June cooling degree days 713  
Growing Degree Days 30 (Base 50)    
Moisture  
Dew Point 56 °F    
Average Humidity 54    
Maximum Humidity 87    
Minimum Humidity 20    
Precipitation  
Precipitation 0.06 in - 0.24 in (2004)
Month to date precipitation 1.00  
Year to date precipitation 1.35  
Sea Level Pressure  
Sea Level Pressure 29.86 in    
Wind  
Wind Speed 9 mph (WSW)    
Max Wind Speed 21 mph    
Max Gust Speed 30 mph    
Visibility 10 miles    
Events Rain , Thunderstorm    
T = Trace of Precipitation, MM = Missing Value Source: NWS Daily Summary

Daily Weather History Graph

Daily Weather History Graph

Search for Another Location

Airport:

Trip Planner

Search our weather history database for the weather conditions in past years. The results will help you decide how hot, cold, wet, or windy it might be!

Date:

Astronomy

Jul. 12, 2013 Rise Set
Actual Time 6:09 AM MDT 8:20 PM MDT
Civil Twilight 5:40 AM MDT 8:48 PM MDT
Nautical Twilight 5:06 AM MDT 9:22 PM MDT
Astronomical Twilight 4:28 AM MDT 10:00 PM MDT
Moon 10:13 AM MDT (7/12) 10:49 PM MDT (7/12)
Length of Visible Light 15h 07m
Length of Day
14h 10m
Waxing Crescent, 18% of the Moon is Illuminated
Jul 12
Waxing Crescent
Jul 15
First Quarter
Jul 22
Full
Jul 29
Last Quarter
Aug 6
New

Hourly Weather History & Observations

Time (MDT) Temp. Heat Index Dew Point Humidity Pressure Visibility Wind Dir Wind Speed Gust Speed Precip Events Conditions
12:53 AM 78.1 °F - 60.1 °F 54% 29.80 in 10.0 mi Calm Calm - N/A   Clear
1:53 AM 75.0 °F - 62.1 °F 64% 29.81 in 10.0 mi West 5.8 mph - N/A   Partly Cloudy
2:25 AM 75.2 °F - 60.8 °F 61% 30.07 in 10.0 mi West 6.9 mph - N/A Thunderstorm Scattered Clouds
2:53 AM 77.0 °F - 59.0 °F 54% 29.81 in 10.0 mi SSW 5.8 mph - N/A Thunderstorm Mostly Cloudy
3:00 AM 75.2 °F - 60.8 °F 61% 30.08 in 10.0 mi SW 4.6 mph - N/A   Overcast
3:13 AM 75.2 °F - 57.2 °F 53% 30.09 in 10.0 mi SSE 11.5 mph - N/A Thunderstorm Overcast
3:28 AM 73.4 °F - 57.2 °F 57% 30.10 in 10.0 mi SSE 17.3 mph 26.5 mph N/A   Mostly Cloudy
3:37 AM 71.6 °F - 60.8 °F 69% 30.11 in 10.0 mi SSE 17.3 mph 24.2 mph N/A Thunderstorm Mostly Cloudy
3:53 AM 71.1 °F - 60.1 °F 68% 29.86 in 10.0 mi South 9.2 mph 20.7 mph N/A Thunderstorm Mostly Cloudy
4:36 AM 71.6 °F - 55.4 °F 57% 30.10 in 10.0 mi South 9.2 mph - 0.00 in Rain Light Rain
4:53 AM 71.1 °F - 57.0 °F 61% 29.83 in 10.0 mi SW 10.4 mph - 0.00 in Rain Light Rain
5:53 AM 66.9 °F - 63.0 °F 87% 29.87 in 9.0 mi West 11.5 mph - 0.04 in Rain Light Rain
6:53 AM 66.9 °F - 59.0 °F 76% 29.86 in 10.0 mi NW 16.1 mph 24.2 mph 0.02 in Rain Light Rain
7:53 AM 70.0 °F - 57.0 °F 63% 29.87 in 10.0 mi NW 16.1 mph 26.5 mph 0.00 in   Clear
8:53 AM 73.0 °F - 57.9 °F 59% 29.88 in 10.0 mi NNW 8.1 mph - N/A   Mostly Cloudy
9:53 AM 75.9 °F - 57.9 °F 54% 29.87 in 10.0 mi NNW 10.4 mph - N/A   Scattered Clouds
10:53 AM 81.0 °F 80.7 °F 55.0 °F 41% 29.87 in 10.0 mi Variable 3.5 mph - N/A   Scattered Clouds
11:53 AM 84.9 °F 83.2 °F 53.1 °F 33% 29.85 in 10.0 mi Calm Calm - N/A   Clear
12:53 PM 87.1 °F - 52.0 °F 30% 29.81 in 10.0 mi NW 6.9 mph - N/A   Clear
1:53 PM 89.1 °F - 50.0 °F 26% 29.78 in 10.0 mi Calm Calm - N/A   Clear
2:53 PM 91.9 °F - 51.1 °F 25% 29.75 in 10.0 mi Variable 6.9 mph - N/A   Clear
3:53 PM 91.0 °F - 50.0 °F 24% 29.75 in 10.0 mi Calm Calm - N/A   Clear
4:53 PM 93.0 °F - 46.9 °F 20% 29.74 in 10.0 mi SSW 9.2 mph 17.3 mph N/A   Clear
5:53 PM 91.0 °F - 51.1 °F 25% 29.74 in 10.0 mi ESE 6.9 mph - N/A   Clear
6:53 PM 87.1 °F - 52.0 °F 30% 29.77 in 10.0 mi West 18.4 mph 25.3 mph N/A   Clear
7:53 PM 84.0 °F 82.5 °F 53.1 °F 34% 29.78 in 10.0 mi West 10.4 mph - N/A   Clear
8:53 PM 82.9 °F - 52.0 °F 34% 29.78 in 10.0 mi NW 9.2 mph - N/A   Clear
9:53 PM 81.0 °F 80.4 °F 53.1 °F 38% 29.78 in 10.0 mi NW 10.4 mph - N/A   Clear
10:53 PM 80.1 °F 80.0 °F 54.0 °F 40% 29.80 in 10.0 mi WNW 8.1 mph - N/A   Clear
11:53 PM 80.1 °F 80.0 °F 54.0 °F 40% 29.82 in 10.0 mi South 15.0 mph - N/A   Mostly Cloudy